星链-4208 (STARLINK-4208 )

导读

STARLINK-4208是美国太空探索技术公司(SpaceX)星链卫星互联网项目的卫星,由美国在2022年6月17日发射升空,属于星链星座组网卫星,主要为全球范围内提供高速互联网接入服务,尤其覆盖偏远地区,依托星链低轨星座架构,支持各类终端的宽带连接服务。

Basic Information
目录编号:
52844
目录名称:
STARLINK-4208
国际标识:
2022-062Q
轨道中心:
EARTH
卫星名称:
星链-4208
卫星全名:
星链-4208 (STARLINK-4208 )
卫星状态:
在轨 (已飞行1540 天)
发射日期:
2022-06-17 UTC
国别 :
美国 (US)
星等 :
--
Orbit Information
数据来源 国际轨道数据
星历时间: 2026-09-03T21:23:35+0800
15小时前
查看轨道信息
半长轴: 6843.403km
偏心率: 0.0001056
轨道倾角: 53.161°
近地点辐角 104.485°
升交点赤经 306.328°
平近点角 255.627°
近地点: 464.543km
远地点: 465.989km
周期: 93.900分钟
每日圈数: 15.335384
Detailed Information
固有亮度:
5
最大亮度:
2.5
卫星平台:
Starlink v1.5
覆盖范围:
全球
运营商:
太空探索技术公司
运营商所在国:
美国
制造商(研发单位):
太空探索技术公司
制造商所在国:
美国
使用方式:
暂无
Satellite Introduction
星链(Starlink)计划是由太空探索技术公司(SpaceX)提出的一个巨型低轨卫星互联网星座项目,计划在2019年至2024年间在太空搭建由约1.2万颗卫星组成的“星链”网络,其中1584颗将部署在地球上空550千米处的近地轨道,并从2020年开始工作。该卫星仍在工作。
2D Orbit Map
3D Orbit Map
Orbit Altitude Analysis Chart
Orbit Inclination Analysis Chart
Orbit Comprehensive Analysis Chart
View Comprehensive Chart
Conjunction Data List
Event ID Objects TCA Miss Dist (km) Collision Risk Probability Collision Risk Index (CRI) Action
CDM_260904-095005-284405-766621
2026-09-04T
09:50:23+0000
1.561 km
极远距离
5.032655E-6 低风险 0.49
CDM_260905-104405-284406-178121
2026-09-05T
10:44:27+0000
1.752 km
极远距离
4.114721E-6 低风险 0.47
CDM_260903-024905-284406-812121
2026-09-03T
02:49:33+0000
2.227 km
极远距离
1.957094E-6 低风险 0.41
CDM_260904-042105-284405-766621
2026-09-04T
04:21:53+0000
2.271 km
极远距离
1.840047E-6 低风险 0.4
CDM_260904-032605-284406-821421
2026-09-04T
03:26:52+0000
2.504 km
极远距离
1.747671E-6 低风险 0.4
CDM_260830-055605-284406-822622
2026-08-30T
05:56:33+0000
2.540 km
极远距离
1.674265E-6 低风险 0.39
CDM_260903-023305-284406-819221
2026-09-03T
02:33:00+0000
2.390 km
极远距离
1.667965E-6 低风险 0.39
CDM_260901-124505-284406-822721
2026-09-01T
12:45:57+0000
2.609 km
极远距离
1.619446E-6 低风险 0.39
CDM_260905-015905-284406-484921
2026-09-05T
01:59:11+0000
2.636 km
极远距离
1.589464E-6 低风险 0.39
CDM_260904-165205-284406-756021
2026-09-04T
16:52:00+0000
2.664 km
极远距离
1.570115E-6 低风险 0.39